Miscellaneous Local Product
Issued by NWS North Platte, NE

Home | Current Version | Previous Version | Text Only | Print | Product List | Glossary Off
Versions: 1 2 3 4 5 6 7 8 9 10 11 12 13 14 15 16 17 18 19 20 21 22 23 24 25 26 27 28 29 30 31 32 33 34 35 36 37 38 39 40 41 42 43 44 45 46 47 48 49 50

000
AXUS43 KLBF 250710
MISLBF


WESTERN AND NORTH CENTRAL NEBRASKA HOURLY WEATHER ROUNDUP
NATIONAL WEATHER SERVICE NORTH PLATTE NE
200 AM CDT SAT MAR 25 2017

NOTE: "FAIR" INDICATES FEW OR NO CLOUDS BELOW 12,000 FEET WITH NO
SIGNIFICANT WEATHER AND/OR OBSTRUCTIONS TO VISIBILITY.

NOTE: STATIONS NOT REPORTING VARIABLES SUCH AS SKY/WEATHER OR
PRESSURE ARE PROVIDED BY RAWS AND APRS NETWORKS AND ARE NOT UNDER
NATIONAL WEATHER SERVICE QUALITY CONTROL.

...OBSERVATIONS IN AND NEAR THE EASTERN PANHANDLE OF NEBRASKA...

CITY           SKY/WX    TMP DP  RH WIND       PRES   REMARKS
PINE RIDGE     CLEAR     44  31  60 VRB5      30.06F
CHADRON        CLEAR     38  29  70 W3        30.05F
ALLIANCE       CLEAR     28  24  85 CALM      30.08F
SIDNEY         CLOUDY    26  24  92 W6        30.10F WCI  19
CRESCENT LAKE    N/A     38  30  73 CALM        N/A
$$

...OBSERVATIONS IN NORTHERN NEBRASKA AND FAR SOUTHERN SOUTH DAKOTA...

CITY           SKY/WX    TMP DP  RH WIND       PRES   REMARKS
WINNER         FOG       28  26  92 CALM      30.12F VSB 1
VALENTINE      CLOUDY    29  25  85 CALM      30.10F
THEDFORD       CLEAR     31  29  90 NW6       30.09F WCI  26
AINSWORTH      CLEAR     31  29  94 NW9       30.09F WCI  23
O`NEILL        CLOUDY    37  36  96 N12       30.07F WCI  30
ORD            CLOUDY    39  36  89 NE14      30.04R WCI  31
BROKEN BOW     PTCLDY    38  35  89 N12       30.04R WCI  30
VALENTINE NWR    N/A     34  28  77 CALM        N/A
HALSEY           N/A     33  30  89 NW6         N/A  WCI  27
BUTTE            N/A     34  32  93 NE12        N/A  WCI  25
CHAMBERS         N/A     37  36  96 N3          N/A
EWING            N/A     36  35  96 NE5         N/A  WCI  32
$$

...OBSERVATIONS IN SOUTHWEST NEBRASKA AND FAR NORTHEAST COLORADO...

CITY           SKY/WX    TMP DP  RH WIND       PRES   REMARKS
WRAY           FAIR      36  32  87 NE10      30.07  WCI  28
HOLYOKE        FAIR      37  32  81 N10       30.07F WCI  30
IMPERIAL       CLEAR     35  30  82 N8        30.08S WCI  29
OGALLALA       CLEAR     37  30  75 CALM      30.08F
NORTH PLATTE   PTCLDY    35  30  82 NW3       30.07R
MCCOOK         CLOUDY    40  39  97 NW6       30.05S
LEXINGTON      CLOUDY    41  37  86 N6        30.04S
STAPLETON        N/A     33  29  86 CALM        N/A
GOTHENBURG       N/A     42  35  77 N6          N/A
CALLAWAY         N/A     37  34  90 N10         N/A  WCI  30
$$

...OBSERVATIONS IN CENTRAL LINCOLN COUNTY AREA...

CITY           SKY/WX    TMP DP  RH WIND       PRES   REMARKS
N.P. AIRPORT   PTCLDY    35  30  82 NW3       30.07R
N.P. DOWNTOWN    N/A     36  32  84 CALM        N/A
N.P. SOUTHEAST   N/A     36  31  82 CALM        N/A
N.P. HILLCREST   N/A     36  32  84 N8          N/A  WCI  30
$$

...SOME OBSERVATIONS FROM AROUND THE REGION...

CITY           SKY/WX    TMP DP  RH WIND       PRES   REMARKS
DENVER         CLOUDY    32  28  85 S9        30.10F WCI  24
LIMON          CLOUDY    29  27  92 NW6       30.12F WCI  23
ASPEN          CLOUDY    34  25  69 SE10      30.20F WCI  26
LARAMIE        CLOUDY    26  20  77 S10       30.09F WCI  16
GILLETTE       CLOUDY    44  28  53 S24G30    29.89F
CHEYENNE       CLOUDY    30  24  78 SW8       30.10F WCI  22
SCOTTSBLUFF    CLOUDY    32  25  75 E6        30.09F WCI  26
GRAND ISLAND   CLOUDY    39  39 100 N15       30.01R FOG     WCI  31
OMAHA          CLOUDY    42  37  82 N16G24    29.95S
SIOUX FALLS    CLOUDY    36  34  92 NE13      30.11S FOG     WCI  27
PIERRE         CLOUDY    29  26  89 E6        30.12F WCI  23
RAPID CITY     CLEAR     37  28  70 SE8       30.03F WCI  31
BISMARCK       CLOUDY    30  27  88 E9        30.13F WCI  22
KANSAS CITY    LGT RAIN  52  52 100 N13       29.76F FOG
HILL CITY      CLOUDY    43  40  89 N12       30.04R
WICHITA        CLOUDY    46  45  96 N21       29.85R
DODGE CITY     CLOUDY    41  39  93 N18       30.00R
OKLAHOMA CITY  LGT RAIN  51  49  92 NW24      29.82R
DALLAS         CLEAR     64  45  49 W25G37    29.87R
AMARILLO       CLEAR     40  35  83 NW16      30.08S WCI  31
$$




USA.gov is the U.S. government's official web portal to all federal, state and local government web resources and services.